{"data":{"norad_id":66694,"epoch":"2026-05-25T03:22:30.495936Z","epoch_age_seconds":66047,"freshness":"FRESH","line1":"1 66694U 25276AE  26145.14063074  .00005131  00000+0  28044-3 0  9996","line2":"2 66694  97.4219 218.2383 0009648  41.6926 318.5040 15.14689931 26867","mean_motion":15.14689931,"eccentricity":0.0009648,"inclination_deg":97.4219,"raan_deg":218.2383,"arg_perigee_deg":41.6926,"mean_anomaly_deg":318.504,"bstar":0.00028044,"rev_number":2686,"period_min":95.068962335368,"perigee_km":515.26288851551,"apogee_km":528.57723862538,"semimajor_km":6900.0570635704,"source":"CELESTRAK","updated_at":"2026-05-25T13:38:06.414369Z"}}